{"data":{"norad_id":64550,"intl_designator":"2025-135Y","name":"BRO-18","alt_names":[],"object_type":"PAYLOAD","status":"ACTIVE","operator":null,"country":"FR","launch_date":"2025-06-23","launch_site_code":"AFWTR","launch_vehicle":null,"mission":null,"orbit_class":"UNKNOWN","rcs_meters":null,"size_class":null,"mass_kg":null,"dimensions":null,"purposes":[],"wikipedia_slug":null,"has_3d_model":false,"image_url":null,"decayed_at":null,"tle_current":{"epoch":"2026-09-21T22:38:00.765024Z","epoch_age_seconds":56891,"freshness":"FRESH","line1":"1 64550U 25135Y   26264.94306441  .00002945  00000+0  12974-3 0  9992","line2":"2 64550  97.4706  19.3024 0000575 113.4259 246.7038 15.22609078 69595","mean_motion":15.22609078,"eccentricity":5.75e-5,"inclination_deg":97.4706,"raan_deg":19.3024,"arg_perigee_deg":113.4259,"mean_anomaly_deg":246.7038,"bstar":0.00012974,"rev_number":6959,"period_min":94.574505091713,"perigee_km":497.57892934852,"apogee_km":498.36968214868,"semimajor_km":6876.1113057486,"source":"CELESTRAK","updated_at":"2026-09-22T09:00:29.844517Z"}}}